Hourly Weather Tatarskie Hutora

Today, 29 September, Tuesday

Time Temperature Precipitation Wind Pressure Humidity
00:00 +10°C° 0 mm 3 mps 749 mmHg 66%
01:00 +10°C° 0 mm 3 mps 749 mmHg 64%
02:00 +10°C° 0 mm 3 mps 749 mmHg 63%
03:00 +10°C° 0 mm 3 mps 749 mmHg 61%
04:00 +10°C° 0 mm 3 mps 749 mmHg 60%
05:00 +10°C° 0 mm 3 mps 748 mmHg 59%
06:00 +10°C° 0 mm 3 mps 749 mmHg 57%
07:00 +11°C° 0 mm 3 mps 749 mmHg 55%
08:00 +12°C° 0 mm 4 mps 749 mmHg 53%
09:00 +12°C° 0 mm 4 mps 749 mmHg 52%
10:00 +13°C° 0 mm 4 mps 748 mmHg 52%
11:00 +14°C° 0 mm 4 mps 748 mmHg 51%
12:00 +14°C° 0 mm 4 mps 748 mmHg 51%
13:00 +15°C° 0 mm 4 mps 748 mmHg 50%
14:00 +15°C° 0 mm 4 mps 748 mmHg 50%
15:00 +14°C° 0 mm 4 mps 748 mmHg 50%
16:00 +13°C° 0 mm 4 mps 748 mmHg 51%
17:00 +12°C° 0 mm 3 mps 747 mmHg 51%
18:00 +12°C° 0 mm 3 mps 747 mmHg 49%
19:00 +12°C° 0 mm 3 mps 747 mmHg 47%
20:00 +12°C° 0 mm 3 mps 747 mmHg 45%
21:00 +11°C° 0 mm 3 mps 747 mmHg 47%
22:00 +10°C° 0 mm 3 mps 747 mmHg 48%
23:00 +10°C° 0 mm 3 mps 747 mmHg 50%

Tomorrow, 30 September, Wednesday

Time Temperature Precipitation Wind Pressure Humidity
00:00 +9°C° 0 mm 3 mps 747 mmHg 51%
01:00 +9°C° 0 mm 3 mps 747 mmHg 51%
02:00 +9°C° 0 mm 3 mps 747 mmHg 52%
03:00 +8°C° 0 mm 4 mps 747 mmHg 53%
04:00 +7°C° 0 mm 4 mps 747 mmHg 54%
05:00 +7°C° 0 mm 4 mps 746 mmHg 55%
06:00 +8°C° 0 mm 4 mps 746 mmHg 55%
07:00 +9°C° 0 mm 5 mps 747 mmHg 56%
08:00 +12°C° 0 mm 5 mps 747 mmHg 56%
09:00 +13°C° 0 mm 5 mps 747 mmHg 52%
10:00 +15°C° 0 mm 6 mps 747 mmHg 47%
11:00 +17°C° 0 mm 6 mps 746 mmHg 43%
12:00 +17°C° 0 mm 6 mps 746 mmHg 43%
13:00 +17°C° 0 mm 6 mps 746 mmHg 43%
14:00 +19°C° 0 mm 6 mps 746 mmHg 42%
15:00 +16°C° 0 mm 5 mps 746 mmHg 48%
16:00 +15°C° 0 mm 5 mps 746 mmHg 53%
17:00 +14°C° 0 mm 4 mps 746 mmHg 58%
18:00 +13°C° 0 mm 5 mps 746 mmHg 59%
19:00 +13°C° 0 mm 5 mps 746 mmHg 60%
20:00 +13°C° 0 mm 5 mps 747 mmHg 61%
21:00 +12°C° 0 mm 5 mps 747 mmHg 63%
22:00 +12°C° 0 mm 4 mps 746 mmHg 64%
23:00 +11°C° 0 mm 4 mps 746 mmHg 66%

Day after tomorrow, 1 October, Thursday

Time Temperature Precipitation Wind Pressure Humidity
00:00 +11°C° 0 mm 4 mps 746 mmHg 66%
01:00 +10°C° 0 mm 4 mps 746 mmHg 67%
02:00 +10°C° 0 mm 4 mps 746 mmHg 67%
03:00 +10°C° 0 mm 4 mps 747 mmHg 66%
04:00 +10°C° 0 mm 4 mps 747 mmHg 65%
05:00 +10°C° 0 mm 4 mps 747 mmHg 65%
06:00 +11°C° 0 mm 4 mps 747 mmHg 63%
07:00 +12°C° 0 mm 5 mps 747 mmHg 61%
08:00 +12°C° 0 mm 5 mps 747 mmHg 59%
09:00 +14°C° 0 mm 6 mps 747 mmHg 53%
10:00 +15°C° 0 mm 6 mps 747 mmHg 46%
11:00 +17°C° 0 mm 7 mps 747 mmHg 40%
12:00 +17°C° 0 mm 6 mps 747 mmHg 41%
13:00 +17°C° 0 mm 6 mps 747 mmHg 41%
14:00 +17°C° 0 mm 5 mps 747 mmHg 41%
15:00 +16°C° 0 mm 5 mps 747 mmHg 45%
16:00 +15°C° 0 mm 4 mps 747 mmHg 49%
17:00 +13°C° 0 mm 4 mps 747 mmHg 53%
18:00 +13°C° 0 mm 4 mps 747 mmHg 53%
19:00 +13°C° 0 mm 4 mps 747 mmHg 52%
20:00 +12°C° 0 mm 4 mps 747 mmHg 52%
21:00 +12°C° 0 mm 4 mps 747 mmHg 53%
22:00 +12°C° 0 mm 4 mps 747 mmHg 54%
23:00 +12°C° 0 mm 4 mps 747 mmHg 56%

2 October, Friday

Time Temperature Precipitation Wind Pressure Humidity
00:00 +12°C° 0 mm 4 mps 747 mmHg 56%
01:00 +11°C° 0 mm 4 mps 747 mmHg 56%
02:00 +11°C° 0 mm 4 mps 747 mmHg 56%
03:00 +11°C° 0 mm 4 mps 747 mmHg 58%
04:00 +10°C° 0 mm 4 mps 748 mmHg 59%
05:00 +10°C° 0 mm 4 mps 748 mmHg 61%
06:00 +11°C° 0 mm 4 mps 748 mmHg 62%
07:00 +11°C° 0 mm 4 mps 748 mmHg 63%
08:00 +12°C° 0 mm 5 mps 748 mmHg 64%
09:00 +13°C° 0 mm 5 mps 748 mmHg 62%
10:00 +14°C° 0 mm 5 mps 748 mmHg 59%
11:00 +15°C° 0 mm 5 mps 748 mmHg 57%
12:00 +16°C° 0 mm 5 mps 748 mmHg 55%
13:00 +16°C° 0 mm 5 mps 748 mmHg 53%
14:00 +17°C° 0 mm 5 mps 748 mmHg 51%
15:00 +16°C° 0 mm 5 mps 748 mmHg 56%
16:00 +15°C° 0 mm 4 mps 748 mmHg 61%
17:00 +13°C° 0 mm 4 mps 748 mmHg 67%
18:00 +13°C° 0 mm 4 mps 748 mmHg 68%
19:00 +13°C° 0 mm 4 mps 748 mmHg 68%
20:00 +13°C° 0 mm 4 mps 748 mmHg 69%
21:00 +12°C° 0 mm 4 mps 748 mmHg 71%
22:00 +12°C° 0 mm 4 mps 748 mmHg 73%
23:00 +11°C° 0 mm 4 mps 748 mmHg 74%

3 October, Saturday

Time Temperature Precipitation Wind Pressure Humidity
00:00 +11°C° 0 mm 4 mps 748 mmHg 73%
01:00 +11°C° 0 mm 4 mps 748 mmHg 72%
02:00 +11°C° 0 mm 4 mps 748 mmHg 71%
03:00 +10°C° 0 mm 4 mps 748 mmHg 70%
04:00 +10°C° 0 mm 4 mps 748 mmHg 68%
05:00 +10°C° 0 mm 4 mps 748 mmHg 67%
06:00 +10°C° 0 mm 4 mps 748 mmHg 65%
07:00 +10°C° 0 mm 5 mps 748 mmHg 62%
08:00 +12°C° 0 mm 5 mps 748 mmHg 60%
09:00 +13°C° 0 mm 5 mps 748 mmHg 57%
10:00 +14°C° 0 mm 5 mps 748 mmHg 54%
11:00 +15°C° 0 mm 5 mps 748 mmHg 52%
12:00 +16°C° 0 mm 5 mps 748 mmHg 52%
13:00 +16°C° 0 mm 5 mps 748 mmHg 53%
14:00 +16°C° 0 mm 5 mps 748 mmHg 53%
15:00 +14°C° 0.1 mm 4 mps 748 mmHg 62%
16:00 +13°C° 0.1 mm 3 mps 748 mmHg 72%
17:00 +12°C° 0.1 mm 2 mps 748 mmHg 81%
18:00 +12°C° 0.4 mm 2 mps 748 mmHg 83%
19:00 +12°C° 0.4 mm 2 mps 748 mmHg 85%
20:00 +12°C° 0.4 mm 1 mps 748 mmHg 87%
21:00 +12°C° 0.4 mm 2 mps 748 mmHg 88%
22:00 +10°C° 0.4 mm 2 mps 748 mmHg 90%
23:00 +10°C° 0.4 mm 2 mps 748 mmHg 91%

4 October, Sunday

Time Temperature Precipitation Wind Pressure Humidity
00:00 +10°C° 0.2 mm 3 mps 748 mmHg 90%
01:00 +10°C° 0.2 mm 3 mps 748 mmHg 89%
02:00 +10°C° 0.2 mm 3 mps 748 mmHg 88%
03:00 +10°C° 0.3 mm 3 mps 748 mmHg 89%
04:00 +10°C° 0.3 mm 4 mps 748 mmHg 89%
05:00 +10°C° 0.3 mm 4 mps 748 mmHg 90%
06:00 +10°C° 0.2 mm 4 mps 748 mmHg 87%
07:00 +10°C° 0.2 mm 4 mps 748 mmHg 85%
08:00 +10°C° 0.2 mm 3 mps 748 mmHg 82%
09:00 +11°C° 0 mm 4 mps 748 mmHg 77%
10:00 +12°C° 0 mm 4 mps 748 mmHg 71%
11:00 +13°C° 0 mm 4 mps 748 mmHg 65%
12:00 +13°C° 0 mm 4 mps 748 mmHg 63%
13:00 +14°C° 0 mm 3 mps 748 mmHg 61%
14:00 +14°C° 0 mm 3 mps 748 mmHg 58%
15:00 +14°C° 0 mm 3 mps 748 mmHg 60%
16:00 +14°C° 0 mm 2 mps 748 mmHg 62%
17:00 +13°C° 0 mm 2 mps 748 mmHg 64%
18:00 +13°C° 0 mm 2 mps 748 mmHg 66%
19:00 +11°C° 0 mm 3 mps 749 mmHg 69%
20:00 +10°C° 0 mm 3 mps 749 mmHg 71%
21:00 +9°C° 0 mm 3 mps 749 mmHg 73%
22:00 +9°C° 0 mm 3 mps 749 mmHg 76%
23:00 +8°C° 0 mm 3 mps 749 mmHg 79%
Show more